Location: Zeiss-Gro�planetarium Berlin
(52.5430°N, 13.4281°E)
Time: 22:25:59
(UTC+01:00)

ISS - Pass Details

Date: 27 September 2020
Orbit: 417 x 420 km, 51.6° (Epoch: 27 October)

Event Time Altitude Azimuth Distance (km) Brightness Sun altitude
Rises 19:26:23 0° 260° (W) 2,366 2.0 -6.1°
Reaches altitude 10° 19:28:29 10° 259° (WSW) 1,503 0.6 -6.4°
Maximum altitude 19:31:50 74° 175° (S) 441 -3.7 -6.9°
Drops below altitude 10° 19:35:13 10° 89° (E) 1,506 -1.6 -7.4°
Enters shadow 19:35:16 10° 89° (E) 1,525 -1.6 -7.4°
